STARLINK-3069 (49176 NORAD) Tracking and Keplerian Element Data

This shows tracking and keplerian element data for the satellite.

Feedback or suggestion? Click here.




ElementValue
Catalog49176
NameSTARLINK-3069
Epoch Orbit696
Epoch Day300.83334491
Epoch Year2021
RAAN3.9254
Inclination69.9995
Eccentricity0.0003798
Argument of Perigee291.988
Mean Anonmoly119.1634
Mean Motion15.69753058
Decay Rate-0.0003123
L11 49176U 21082AY 21300.83334491 -.00031230 00000-0 -26073-3 0 9993
L22 49176 69.9995 3.9254 0003798 291.9880 119.1634 15.69753058 6968

Live tracking and technical data element details for STARLINK-3069 (NORAD 49176). STARLINK-3069 can be tracked NOW for your location showing map with azimuth and elevation plus other details from your city location.

Track the satellite on the map from your city or location and see movement details for azimuth, elevation, latitude, longitude, range, height, and movement on the map or in text.







IsCatalogInMostPopularTable: catalog: 49176, numindb: 13
Update: records affected: 1



GetName: 49176 STARLINK-3069

Hit Count: updated at: Thu, 28 Oct 2021 11:08:18 GMT